This demonstration page uses our WeatherBlox Daily Observations layout. Learn more.

Hourly Observations for May 4, 2019

Temp ( °F °C ) Dew Point ( °F °C ) Humidity (%) Winds ( mph kmh ) Pressure ( in mb ) Visibility ( mi km ) Precip ( " mm )
12:54 am 00:54 Clear 49 9.4 46 7.8 90 90 S 6 9 30 1016 10 16.0934 0 0
1:54 am 01:54 Clear 50 10 46 7.8 86 86 Calm 30 1016 10 16.0934 0 0
2:54 am 02:54 Clear 50 10 46 7.8 86 86 Calm 29.99 1016 10 16.0934 0 0
3:54 am 03:54 Clear with Mist and Fog 46 7.8 45 7.2 96 96 S 6 9 29.99 1016 6 9.65604 0 0
4:54 am 04:54 Clear with Mist and Fog 46 7.8 44 6.7 93 93 Calm 29.99 1016 3 4.82802 0 0
5:35 am 05:35 Clear with Mist and Fog 45 7.2 44 6.7 97 97 SSW 3 6 30.02 1017 2 3.21868 0 0
5:50 am 05:50 Clear with Mist and Fog 45 7 45 7 100 100 SSE 5 7 30.03 1017 4 6.43736 0 0
5:54 am 05:54 Clear with Mist and Fog 45 7.2 44 6.7 97 97 SSE 5 7 30 1016 4 6.43736 0 0
6:14 am 06:14 Clear with Mist and Fog 43 6.1 42 5.6 97 97 S 5 7 30.04 1017 1.75 2.816345 0 0
6:22 am 06:22 Sunny with Mist and Fog 44 6.7 42 5.6 93 93 SSE 3 6 30.04 1017 4 6.43736 0 0
6:54 am 06:54 Sunny with Mist and Fog 44 6.7 43 6.1 96 96 S 3 6 30.01 1016 3 4.82802 0 0
7:03 am 07:03 Partly Cloudy with Mist and Fog 45 7.2 44 6.7 97 97 SSE 3 6 30.03 1017 2 3.21868 0 0
7:33 am 07:33 Partly Cloudy with Mist and Fog 47 8.3 46 7.8 97 97 S 5 7 30.04 1017 2 3.21868 0 0
7:54 am 07:54 Partly Cloudy with Mist and Fog 47 8.3 47 8.3 100 100 S 3 6 30.02 1017 1.5 2.41401 0 0
8:07 am 08:07 Mostly Cloudy with Fog 48 8.9 48 8.9 100 100 Calm 30.04 1017 0.25 0.402335 0 0
8:54 am 08:54 Mostly Cloudy with Fog 50 10 49 9.4 96 96 SSE 3 6 30.01 1016 0.25 0.402335 0 0
9:00 am 09:00 Cloudy with Mist and Fog 50 10 49 9.4 96 96 S 6 9 30.03 1017 2 3.21868 0 0
9:48 am 09:48 Partly Cloudy with Mist and Fog 54 12 52 11 94 94 SSE 7 11 30 1016 6 9.65604 0 0
9:54 am 09:54 Partly Cloudy 54 12.2 52 11.1 93 93 SSE 5 7 29.99 1016 7 11.26538 0 0
10:54 am 10:54 Partly Cloudy 64 17.8 51 10.6 63 63 WSW 3 6 29.98 1015 10 16.0934 0 0
11:54 am 11:54 Partly Cloudy 67 19.4 52 11.1 59 59 VRB 5 7 29.97 1015 10 16.0934 0 0
12:54 pm 12:54 Mostly Cloudy 70 21.1 53 11.7 55 55 ESE 6 9 29.94 1014 10 16.0934 0 0
1:54 pm 13:54 Partly Cloudy 70 21.1 51 10.6 51 51 S 5 7 29.92 1013 10 16.0934 0 0
2:54 pm 14:54 Mostly Cloudy with Light Rain 70 21.1 52 11.1 53 53 SE 5 7 29.89 1012 10 16.0934 0 0.0254
3:07 pm 15:07 Cloudy with Nearby Thunderstorms 69 20.6 53 11.7 57 57 VRB 5 7 29.86 1011 7 11.26538 0 0.0254
3:13 pm 15:13 Cloudy with Nearby Thunderstorms 68 20 52 11.1 57 57 W 6 9 29.87 1011 4 6.43736 0.01 0.254
3:16 pm 15:16 Cloudy with Heavy Rain 66 18.9 54 12.2 65 65 SSW 5 7 29.86 1011 2.5 4.02335 0.03 0.762
3:32 pm 15:32 Cloudy with Light Rain 64 17.8 55 12.8 73 73 Calm 29.86 1011 6 9.65604 0.08 2.032
3:54 pm 15:54 Mostly Cloudy with Light Rain 68 20 56 13.3 65 65 S 3 6 29.86 1011 10 16.0934 0.08 2.032
4:54 pm 16:54 Sunny 73 22.8 54 12.2 51 51 SE 9 15 29.82 1010 10 16.0934 0 0.0254
5:54 pm 17:54 Sunny 70 21.1 53 11.7 55 55 SSE 15 24 29.82 1010 10 16.0934 0 0
6:54 pm 18:54 Mostly Sunny 67 19.4 54 12.2 63 63 SSE 16 26 29.82 1010 10 16.0934 0 0
7:54 pm 19:54 Cloudy 66 18.9 55 12.8 68 68 S 13 20 29.81 1009 10 16.0934 0 0
8:54 pm 20:54 Clear 66 18.9 51 10.6 59 59 S 16 26 29.83 1010 10 16.0934 0 0
9:54 pm 21:54 Cloudy with Light Rain 65 18.3 52 11.1 63 63 VRB 6 9 29.86 1011 10 16.0934 0 0.0254
10:54 pm 22:54 Cloudy 62 16.7 53 11.7 73 73 SSE 7 11 29.85 1011 10 16.0934 0 0.0254
11:54 pm 23:54 Mostly Clear 62 16.7 52 11.1 70 70 S 10 17 29.83 1010 10 16.0934 0 0

Powered by AerisWeather